Location: Mountain_View
(35.6670°N, 81.4000°W)
Time: 04:39:56
(UTC-04:00)

Amateur Radio Satellites - All Passes

Search period start: 27 September 2016 04:09
Search period end: 28 September 2016 04:09
Location: Mountain_View, 35.6670°N, 81.4000°W

Satellite Date Start Highest point End Downlink Frequencies (MHz)
Time Altitude Azimuth
YUBILEINY 27 Sep 04:11:02 04:19:51 83° 276° (W) 04:28:40 435.215
SRMSAT 27 Sep 04:17:45 04:18:46 10° 194° (SSW) 04:19:48 437.500
MOZHAYETS 4 27 Sep 04:19:48 04:24:20 72° 76° (ENE) 04:28:55
BEESAT 27 Sep 04:23:23 04:26:24 17° 266° (W) 04:29:25 436.000
AIST 2 27 Sep 04:26:56 04:30:59 68° 116° (ESE) 04:35:05 435.215
PCSat 27 Sep 04:31:35 04:36:16 31° 108° (ESE) 04:40:59 145.827
Gurwin Techsat 1B 27 Sep 04:36:21 04:40:30 24° 293° (WNW) 04:44:37 435.225
ITAMSAT 1 27 Sep 04:36:53 04:42:08 83° 284° (WNW) 04:47:21 435.822/435.867
KKS-1 27 Sep 04:52:49 04:57:15 74° 257° (WSW) 05:01:43 437.445
ISS 27 Sep 04:54:29 04:57:40 47° 226° (SW) 05:00:50 145.825
AO-7 27 Sep 05:05:28 05:13:46 71° 105° (ESE) 05:22:02 29.400- 29.500
AIST 1 27 Sep 05:07:50 05:10:25 15° 87° (E) 05:12:59
Cosmos 2491 27 Sep 05:15:25 05:19:48 15° 282° (WNW) 05:24:11 435.465 / 435.565
STARS 27 Sep 05:29:25 05:33:44 60° 259° (W) 05:38:05 437.465
CUBESAT XI-V 27 Sep 05:36:40 05:41:16 60° 75° (ENE) 05:45:55 437.345
Cosmos 2504 27 Sep 05:43:43 05:50:56 49° 281° (W) 05:57:53 435.465 / 435.565
RS-15 27 Sep 05:48:53 06:01:15 67° 56° (ENE) 06:13:14 29.354- 29.394
BRITE-PL 27 Sep 05:50:46 05:52:49 13° 90° (E) 05:54:48 437.365/2234.400
CUSAT 1 27 Sep 05:58:24 06:04:27 25° 67° (ENE) 06:09:45 437.405
HORYU 2 27 Sep 06:07:11 06:11:19 36° 99° (E) 06:15:25 437.375
AIST 2 27 Sep 06:08:26 06:09:54 12° 314° (NW) 06:11:22 435.215
YUBILEINY 27 Sep 06:13:36 06:17:57 14° 296° (WNW) 06:22:20 435.215
PCSat 27 Sep 06:14:46 06:19:34 32° 304° (NW) 06:24:24 145.827
NOAA 15 27 Sep 06:18:32 06:20:40 12° 91° (E) 06:22:47 137.62
Cubesat XI-IV 27 Sep 06:30:44 06:33:18 13° 92° (E) 06:35:53 437.490
CUTE-I 27 Sep 06:31:06 06:33:47 14° 92° (E) 06:36:29 437.470
AIST 1 27 Sep 06:43:36 06:47:38 36° 281° (W) 06:51:41
AO-85 27 Sep 06:49:47 06:53:41 40° 56° (NE) 06:57:22 145.980
O/OREOS (USA 219) 27 Sep 06:55:03 06:57:04 13° 98° (E) 06:59:05 437.305
AO-7 27 Sep 06:59:34 07:05:45 24° 303° (WNW) 07:11:58 29.400- 29.500
NOAA 18 27 Sep 07:02:49 07:07:06 23° 96° (E) 07:11:22 137.9125
CUBESAT XI-V 27 Sep 07:17:28 07:18:59 11° 269° (W) 07:20:30 437.345
DANDE 27 Sep 07:17:51 07:25:55 48° 75° (ENE) 07:33:20 436.750
GOMX 1 27 Sep 07:21:07 07:25:24 52° 99° (E) 07:29:29 467.674
LilacSat-2 27 Sep 07:26:43 07:30:30 56° 101° (E) 07:34:17 437.200
BRITE-PL 27 Sep 07:27:04 07:31:42 50° 287° (WNW) 07:35:58 437.365/2234.400
CUSAT 1 27 Sep 07:39:33 07:47:02 57° 268° (W) 07:53:11 437.405
HORYU 2 27 Sep 07:44:34 07:47:33 18° 293° (WNW) 07:50:32 437.375
DOVE 4 27 Sep 07:47:12 07:51:08 39° 98° (E) 07:55:01 437.250
STRAND 1 27 Sep 07:53:57 07:59:02 77° 75° (ENE) 08:04:08 437.568
NOAA 15 27 Sep 07:55:35 08:00:52 68° 286° (WNW) 08:06:05 137.62
RS-15 27 Sep 08:02:30 08:12:51 34° 256° (WSW) 08:22:58 29.354- 29.394
CANX-2 27 Sep 08:04:13 08:05:44 12° 92° (E) 08:07:14 2200.000
Cubesat XI-IV 27 Sep 08:08:27 08:13:45 64° 286° (WNW) 08:19:02 437.490
CUTE-I 27 Sep 08:08:55 08:14:12 62° 286° (WNW) 08:19:29 437.470
O/OREOS (USA 219) 27 Sep 08:31:33 08:35:56 49° 293° (WNW) 08:40:25 437.305
AO-85 27 Sep 08:31:50 08:33:36 13° 252° (WSW) 08:35:21 145.980
GONETS M04 27 Sep 08:34:32 08:42:05 33° 85° (E) 08:49:40
NOAA 18 27 Sep 08:42:46 08:47:50 40° 290° (WNW) 08:52:54 137.9125
CUBEBUG 2 27 Sep 08:45:11 08:45:33 10° 92° (E) 08:45:54 437.445
HO-68 27 Sep 08:57:02 09:03:56 49° 101° (E) 09:10:48 435.675
Cosmos 2499 27 Sep 08:57:28 09:03:51 35° 88° (E) 09:10:05 435.465 / 435.565
DANDE 27 Sep 09:01:02 09:08:24 36° 273° (W) 09:15:15 436.750
GOMX 1 27 Sep 09:01:31 09:02:56 11° 296° (WNW) 09:04:19 467.674
PRISM 27 Sep 09:01:40 09:05:23 33° 72° (ENE) 09:09:08 437.425
UWE-3 27 Sep 09:04:08 09:05:32 11° 92° (E) 09:06:57 435.000/436.395/437.385
CINEMA 3 27 Sep 09:05:11 09:09:22 80° 101° (ESE) 09:13:39 145.822/145.860
COMPASS 1 27 Sep 09:12:55 09:16:39 30° 97° (E) 09:20:21 437.405
DOVE 4 27 Sep 09:26:21 09:28:28 14° 293° (WNW) 09:30:35 437.250
Oscar 11 27 Sep 09:34:05 09:36:41 15° 93° (E) 09:39:16 145.826/435.025
ZACube-1 27 Sep 09:34:12 09:36:58 16° 94° (E) 09:39:46 437.345
CUTE 1.7 + AOD 2 27 Sep 09:36:31 09:40:45 60° 285° (WNW) 09:44:57 437.475
CANX-2 27 Sep 09:37:39 09:41:49 49° 286° (WNW) 09:45:58 2200.000
SEEDS 27 Sep 09:39:27 09:43:44 82° 283° (WNW) 09:47:59 437.485
BEESAT 3 27 Sep 09:42:57 09:43:57 11° 46° (NE) 09:44:56 437.485
ANTELSAT 27 Sep 09:50:12 09:52:15 13° 66° (ENE) 09:54:16 437.575/2403.000
AAUSAT CUBESAT 2 27 Sep 10:04:28 10:08:40 80° 284° (WNW) 10:12:50 437.432
TIGRISAT 27 Sep 10:09:39 10:12:51 21° 69° (ENE) 10:16:03 435.000
CUBEBUG 2 27 Sep 10:18:13 10:22:25 57° 285° (WNW) 10:26:45 437.445
FUNcube-1 27 Sep 10:27:27 10:31:46 65° 101° (E) 10:36:10 145.935
GONETS M04 27 Sep 10:30:06 10:38:31 48° 283° (WNW) 10:47:01
BEESAT 2 27 Sep 10:35:15 10:38:09 19° 51° (NE) 10:41:02 435.950
UWE-3 27 Sep 10:38:01 10:42:13 52° 285° (WNW) 10:46:31 435.000/436.395/437.385
PRISM 27 Sep 10:38:03 10:40:43 17° 265° (W) 10:43:26 437.425
HO-68 27 Sep 10:45:23 10:51:17 29° 297° (WNW) 10:57:10 435.675
UNISAT 6 27 Sep 10:48:49 10:53:04 67° 75° (ENE) 10:57:18 437.425
COMPASS 1 27 Sep 10:48:59 10:51:57 19° 291° (WNW) 10:54:56 437.405
Cosmos 2499 27 Sep 10:50:27 10:56:50 34° 284° (WNW) 11:03:09 435.465 / 435.565
Oscar 11 27 Sep 11:08:53 11:12:55 38° 287° (WNW) 11:16:58 145.826/435.025
NANOSAT C BR1 27 Sep 11:09:07 11:10:38 12° 66° (ENE) 11:12:10 145.865
ZACube-1 27 Sep 11:09:20 11:13:20 37° 287° (WNW) 11:17:23 437.345
BEESAT 3 27 Sep 11:18:05 11:22:02 69° 244° (WSW) 11:25:58 437.485
PHONESAT 2.4 27 Sep 11:19:31 11:22:20 45° 152° (SSE) 11:25:10 2401.200-2431.200
ANTELSAT 27 Sep 11:24:26 11:28:33 45° 261° (W) 11:32:38 437.575/2403.000
QB50P2 27 Sep 11:29:46 11:33:09 24° 70° (ENE) 11:36:32 145.880/145.840
DELFI C3 27 Sep 11:31:08 11:35:03 50° 285° (WNW) 11:38:54 145.870
POLYITAN 1 27 Sep 11:32:00 11:35:22 24° 70° (ENE) 11:38:45 437.675
HUMSAT D 27 Sep 11:35:55 11:40:12 80° 103° (ESE) 11:44:29 437.325/437.525
TIGRISAT 27 Sep 11:45:44 11:49:23 27° 263° (W) 11:53:00 435.000
JAS-2 27 Sep 11:53:33 11:59:22 39° 67° (ENE) 12:05:54 435.910
ESTCUBE 1 27 Sep 12:05:16 12:08:53 23° 95° (E) 12:12:28 437.505/2401.250
VELOX 1 27 Sep 12:09:46 12:10:50 11° 92° (E) 12:11:53 145.980
DUCHIFAT 1 27 Sep 12:10:09 12:14:15 59° 75° (ENE) 12:18:22 145.980
QB50P1 27 Sep 12:11:25 12:15:36 72° 76° (ENE) 12:19:47 145.935-145.965
BEESAT 2 27 Sep 12:12:24 12:16:02 33° 247° (WSW) 12:19:38 435.950
CUBEBUG 1 27 Sep 12:14:11 12:17:01 17° 94° (E) 12:19:50 437.445
BUGSAT 1 27 Sep 12:16:08 12:19:33 26° 71° (ENE) 12:22:57 437.445
POPSAT HIP 1 27 Sep 12:24:52 12:29:04 79° 258° (WSW) 12:33:17 437.405
NANOSAT C BR1 27 Sep 12:41:49 12:45:53 50° 260° (W) 12:49:59 145.865
AIST 2 27 Sep 12:51:35 12:54:41 20° 51° (NE) 12:57:46 435.215
PHONESAT 2.4 27 Sep 12:55:42 12:58:29 39° 348° (NNW) 13:01:18 2401.200-2431.200
SPROUT 27 Sep 12:57:43 13:01:02 22° 95° (E) 13:04:20 437.525
AISAT 27 Sep 12:59:38 13:03:52 46° 99° (E) 13:08:04 437.250
M-CUBED/EXP-1 PRIME 27 Sep 13:01:02 13:03:24 19° 101° (E) 13:05:47 437.505
QB50P2 27 Sep 13:05:27 13:08:50 23° 264° (W) 13:12:14 145.880/145.840
POLYITAN 1 27 Sep 13:07:42 13:11:04 23° 264° (W) 13:14:26 437.675
UKube-1 27 Sep 13:10:19 13:13:56 26° 97° (E) 13:17:33 .
50 SAT 27 Sep 13:12:12 13:15:52 65° 102° (ESE) 13:19:27 437.505
Oscar 19 27 Sep 13:21:34 13:26:04 30° 69° (ENE) 13:30:34 437.125/150
PCSat 27 Sep 13:22:59 13:26:11 16° 48° (NE) 13:29:22 145.827
DX 1 27 Sep 13:37:10 13:41:31 75° 102° (ESE) 13:45:50 434.975-435.025
JAS-2 27 Sep 13:38:54 13:44:25 32° 266° (W) 13:50:36 435.910
ESTCUBE 1 27 Sep 13:41:46 13:45:37 28° 290° (WNW) 13:49:28 437.505/2401.250
VELOX 1 27 Sep 13:43:17 13:47:35 55° 286° (WNW) 13:51:52 145.980
CUBEBUG 1 27 Sep 13:49:27 13:53:22 34° 288° (WNW) 13:57:15 437.445
BUGSAT 1 27 Sep 13:51:46 13:54:51 20° 264° (W) 13:57:56 437.445
AUBIESAT-1 27 Sep 13:57:48 14:01:05 76° 288° (WNW) 14:04:25 437.475
AO-7 27 Sep 14:13:43 14:17:47 15° 52° (NE) 14:21:49 29.400- 29.500
Gurwin Techsat 1B 27 Sep 14:14:00 14:19:02 46° 71° (ENE) 14:24:05 435.225
ITAMSAT 1 27 Sep 14:16:13 14:18:16 12° 62° (ENE) 14:20:18 435.822/435.867
Cosmos 2491 27 Sep 14:19:15 14:25:16 21° 81° (E) 14:31:17 435.465 / 435.565
TISAT 1 27 Sep 14:19:48 14:23:38 35° 98° (E) 14:27:27 437.305
YUBILEINY 27 Sep 14:25:15 14:33:25 43° 76° (ENE) 14:41:31 435.215
AIST 2 27 Sep 14:29:24 14:33:15 35° 246° (WSW) 14:37:03 435.215
PHONESAT 2.4 27 Sep 14:32:17 14:34:59 31° 5° (N) 14:37:40 2401.200-2431.200
SPROUT 27 Sep 14:33:22 14:36:53 26° 290° (WNW) 14:40:24 437.525
M-CUBED/EXP-1 PRIME 27 Sep 14:35:39 14:37:51 17° 295° (WNW) 14:40:01 437.505
SWISSCUBE 27 Sep 14:36:40 14:37:50 11° 91° (E) 14:38:59 437.505
AISAT 27 Sep 14:37:41 14:39:54 14° 294° (WNW) 14:42:07 437.250
UKube-1 27 Sep 14:46:28 14:49:50 23° 291° (WNW) 14:53:11 .
BEESAT 27 Sep 14:48:36 14:50:58 14° 93° (E) 14:53:20 436.000
Oscar 19 27 Sep 15:00:53 15:05:18 28° 264° (W) 15:09:44 437.125/150
PCSat 27 Sep 15:04:44 15:10:09 74° 245° (WSW) 15:15:31 145.827
SO-50 27 Sep 15:19:49 15:24:11 34° 113° (ESE) 15:28:31 436.795
Cosmos 2504 27 Sep 15:38:12 15:45:22 47° 79° (ENE) 15:52:59 435.465 / 435.565
ITAMSAT 1 27 Sep 15:51:54 15:57:03 73° 258° (WSW) 16:02:15 435.822/435.867
Gurwin Techsat 1B 27 Sep 15:55:29 15:59:09 19° 266° (W) 16:02:50 435.225
TISAT 1 27 Sep 15:56:25 15:58:57 16° 293° (WNW) 16:01:31 437.305
ITUPSAT 1 27 Sep 15:57:47 16:02:37 79° 103° (ESE) 16:07:26 437.325
AO-7 27 Sep 16:00:52 16:09:08 74° 70° (ENE) 16:17:26 29.400- 29.500
PHONESAT 2.4 27 Sep 16:08:22 16:11:20 80° 24° (NNE) 16:14:17 2401.200-2431.200
SWISSCUBE 27 Sep 16:11:14 16:15:59 65° 286° (WNW) 16:20:44 437.505
Cosmos 2491 27 Sep 16:12:23 16:21:07 72° 278° (W) 16:29:58 435.465 / 435.565
MOZHAYETS 4 27 Sep 16:18:27 16:21:59 21° 95° (E) 16:25:29
YUBILEINY 27 Sep 16:22:18 16:29:58 37° 274° (W) 16:37:38 435.215
BEESAT 27 Sep 16:24:21 16:29:01 52° 287° (WNW) 16:33:39 436.000
KKS-1 27 Sep 16:47:07 16:50:49 25° 97° (E) 16:54:29 437.445
AIST 1 27 Sep 16:53:25 16:57:25 37° 79° (E) 17:01:22
BRITE-PL 27 Sep 16:57:29 17:00:47 16° 65° (ENE) 17:04:05 437.365/2234.400
SO-50 27 Sep 17:00:39 17:04:41 26° 308° (NW) 17:08:42 436.795
HORYU 2 27 Sep 17:02:44 17:06:16 24° 69° (ENE) 17:09:49 437.375
O/OREOS (USA 219) 27 Sep 17:06:16 17:09:17 17° 59° (ENE) 17:12:18 437.305
STARS 27 Sep 17:21:56 17:25:44 29° 97° (E) 17:29:32 437.465
Cosmos 2504 27 Sep 17:32:13 17:38:23 29° 274° (W) 17:44:54 435.465 / 435.565
NOAA 15 27 Sep 17:35:23 17:38:37 17° 64° (ENE) 17:41:52 137.62
CUBESAT XI-V 27 Sep 17:37:10 17:40:27 19° 94° (E) 17:43:42 437.345
ITUPSAT 1 27 Sep 17:39:23 17:39:45 10° 298° (WNW) 17:40:06 437.325
PHONESAT 2.4 27 Sep 17:45:14 17:47:10 16° 215° (SW) 17:49:07 2401.200-2431.200
Cubesat XI-IV 27 Sep 17:49:42 17:53:12 18° 65° (ENE) 17:56:42 437.490
CUTE-I 27 Sep 17:49:56 17:53:29 18° 65° (ENE) 17:57:01 437.470
MOZHAYETS 4 27 Sep 17:55:02 17:59:09 32° 289° (WNW) 18:03:15
AO-7 27 Sep 17:56:43 18:02:30 20° 266° (W) 18:08:19 29.400- 29.500
LilacSat-2 27 Sep 18:06:46 18:09:22 18° 70° (ENE) 18:11:58 437.200
Cosmos 2491 27 Sep 18:16:53 18:19:37 12° 298° (WNW) 18:22:22 435.465 / 435.565
KKS-1 27 Sep 18:23:41 18:27:15 24° 291° (WNW) 18:30:48 437.445
GOMX 1 27 Sep 18:25:01 18:30:10 46° 74° (ENE) 18:35:09 467.674
NOAA 18 27 Sep 18:26:05 18:30:57 34° 69° (ENE) 18:35:49 137.9125
AIST 1 27 Sep 18:32:26 18:34:36 14° 274° (W) 18:36:45
BRITE-PL 27 Sep 18:32:58 18:38:38 68° 259° (W) 18:44:16 437.365/2234.400
HORYU 2 27 Sep 18:39:01 18:42:41 26° 263° (W) 18:46:22 437.375
O/OREOS (USA 219) 27 Sep 18:44:32 18:48:52 42° 255° (WSW) 18:53:10 437.305
DOVE 4 27 Sep 18:49:07 18:53:39 33° 72° (ENE) 18:57:56 437.250
GONETS M04 27 Sep 18:50:32 18:54:03 13° 62° (ENE) 18:57:34
CUSAT 1 27 Sep 18:55:40 19:00:28 25° 83° (E) 19:06:02 437.405
STARS 27 Sep 18:58:37 19:01:53 21° 292° (WNW) 19:05:09 437.465
NOAA 15 27 Sep 19:12:41 19:17:53 56° 259° (W) 19:23:07 137.62
CUBESAT XI-V 27 Sep 19:13:36 19:17:55 36° 288° (WNW) 19:22:10 437.345
HO-68 27 Sep 19:23:17 19:29:06 28° 63° (ENE) 19:34:55 435.675
Cubesat XI-IV 27 Sep 19:27:40 19:32:49 51° 260° (W) 19:37:59 437.490
CUTE-I 27 Sep 19:27:57 19:33:05 50° 260° (W) 19:38:15 437.470
LilacSat-2 27 Sep 19:40:23 19:43:28 24° 264° (W) 19:46:35 437.200
ISS 27 Sep 19:56:43 19:59:10 20° 129° (SE) 20:01:37 145.825
COMPASS 1 27 Sep 20:02:00 20:04:18 15° 67° (ENE) 20:06:37 437.405
CINEMA 3 27 Sep 20:03:42 20:08:05 50° 75° (ENE) 20:12:17 145.822/145.860
GOMX 1 27 Sep 20:04:29 20:08:20 20° 266° (W) 20:12:06 467.674
NOAA 18 27 Sep 20:06:59 20:11:34 27° 263° (W) 20:16:10 137.9125
RS-15 27 Sep 20:07:43 20:18:44 56° 110° (ESE) 20:30:20 29.354- 29.394
STRAND 1 27 Sep 20:07:43 20:12:21 33° 97° (E) 20:16:57 437.568
DANDE 27 Sep 20:22:38 20:27:13 47° 90° (E) 20:33:17 436.750
CUTE 1.7 + AOD 2 27 Sep 20:25:48 20:29:58 63° 76° (ENE) 20:34:11 437.475
CANX-2 27 Sep 20:26:57 20:31:09 77° 77° (ENE) 20:35:25 2200.000
DOVE 4 27 Sep 20:27:16 20:31:17 23° 264° (W) 20:35:10 437.250
SEEDS 27 Sep 20:28:01 20:32:00 44° 74° (ENE) 20:36:02 437.485
CUSAT 1 27 Sep 20:36:01 20:41:48 49° 285° (WNW) 20:48:58 437.405
Cosmos 2499 27 Sep 20:42:18 20:49:53 65° 82° (E) 20:58:03 435.465 / 435.565
GONETS M04 27 Sep 20:43:34 20:52:24 76° 82° (E) 21:01:08
AAUSAT CUBESAT 2 27 Sep 20:51:30 20:55:26 43° 74° (ENE) 20:59:24 437.432
AO-85 27 Sep 21:00:17 21:04:59 33° 113° (ESE) 21:09:29 145.980
HO-68 27 Sep 21:09:28 21:16:24 52° 259° (W) 21:23:22 435.675
CUBEBUG 2 27 Sep 21:13:13 21:17:26 80° 77° (ENE) 21:21:37 437.445
FUNcube-1 27 Sep 21:20:25 21:24:06 32° 72° (ENE) 21:27:47 145.935
UWE-3 27 Sep 21:31:53 21:36:04 85° 76° (ENE) 21:40:13 435.000/436.395/437.385
ISS 27 Sep 21:32:31 21:35:29 32° 324° (NW) 21:38:28 145.825
COMPASS 1 27 Sep 21:35:35 21:39:29 39° 262° (W) 21:43:26 437.405
JUGNU 27 Sep 21:41:16 21:44:35 15° 174° (S) 21:47:54 437.505
CINEMA 3 27 Sep 21:43:38 21:45:24 12° 267° (W) 21:47:08 145.822/145.860
STRAND 1 27 Sep 21:47:08 21:51:20 26° 292° (WNW) 21:55:31 437.568
Oscar 11 27 Sep 22:00:02 22:04:20 75° 259° (WSW) 22:08:39 145.826/435.025
ZACube-1 27 Sep 22:01:50 22:05:57 68° 260° (W) 22:10:05 437.345
SEEDS 27 Sep 22:06:08 22:07:54 12° 268° (W) 22:09:40 437.485
DANDE 27 Sep 22:06:47 22:10:33 20° 296° (WNW) 22:15:06 436.750
DELFI C3 27 Sep 22:13:30 22:17:24 57° 75° (ENE) 22:21:21 145.870
RS-15 27 Sep 22:20:37 22:31:31 43° 313° (NW) 22:42:59 29.354- 29.394
PRISM 27 Sep 22:20:40 22:24:48 83° 100° (E) 22:28:54 437.425
HUMSAT D 27 Sep 22:24:23 22:28:05 35° 73° (ENE) 22:31:49 437.325/437.525
AAUSAT CUBESAT 2 27 Sep 22:29:19 22:31:05 12° 268° (W) 22:32:52 437.432
Cosmos 2499 27 Sep 22:36:59 22:42:21 21° 276° (W) 22:47:59 435.465 / 435.565
SRMSAT 27 Sep 22:39:49 22:40:39 10° 166° (SSE) 22:41:29 437.500
AO-85 27 Sep 22:40:55 22:45:26 29° 307° (NW) 22:49:45 145.980
GONETS M04 27 Sep 22:42:31 22:48:09 19° 280° (W) 22:53:45
UNISAT 6 27 Sep 22:44:06 22:47:05 18° 94° (E) 22:50:05 437.425
FUNcube-1 27 Sep 22:57:50 23:00:24 16° 266° (W) 23:02:59 145.935
ESTCUBE 1 27 Sep 23:02:49 23:05:32 16° 66° (ENE) 23:08:16 437.505/2401.250
CUBEBUG 1 27 Sep 23:09:11 23:10:19 11° 65° (ENE) 23:11:27 437.445
ANTELSAT 27 Sep 23:18:27 23:22:41 43° 99° (E) 23:26:59 437.575/2403.000
JUGNU 27 Sep 23:29:19 23:32:50 16° 184° (S) 23:36:21 437.505
TIGRISAT 27 Sep 23:38:53 23:43:18 72° 101° (ESE) 23:47:48 435.000
M-CUBED/EXP-1 PRIME 27 Sep 23:44:26 23:47:31 20° 66° (ENE) 23:50:27 437.505
50 SAT 27 Sep 23:46:53 23:49:21 18° 69° (ENE) 23:51:50 437.505
SPROUT 27 Sep 23:49:59 23:51:45 12° 66° (ENE) 23:53:29 437.525
AISAT 27 Sep 23:54:11 23:58:03 29° 70° (ENE) 00:01:53 437.250
SO-50 27 Sep 23:54:56 23:57:39 15° 46° (NE) 00:00:19 436.795
DUCHIFAT 1 27 Sep 23:59:19 00:00:42 11° 92° (E) 00:02:06 145.980
QB50P1 28 Sep 00:00:29 00:02:46 14° 93° (E) 00:05:04 145.935-145.965
HUMSAT D 28 Sep 00:01:31 00:03:48 15° 267° (W) 00:06:07 437.325/437.525
UKube-1 28 Sep 00:02:51 00:05:32 16° 67° (ENE) 00:08:14 .
POPSAT HIP 1 28 Sep 00:13:16 00:16:23 20° 95° (E) 00:19:31 437.405
UNISAT 6 28 Sep 00:19:48 00:23:51 36° 288° (WNW) 00:27:56 437.425
SRMSAT 28 Sep 00:25:33 00:29:01 16° 175° (S) 00:32:30 437.500
NANOSAT C BR1 28 Sep 00:29:12 00:32:54 30° 97° (E) 00:36:34 145.865
DX 1 28 Sep 00:29:37 00:33:45 43° 73° (ENE) 00:37:55 434.975-435.025
VELOX 1 28 Sep 00:37:06 00:41:33 88° 71° (ENE) 00:46:02 145.980
ESTCUBE 1 28 Sep 00:37:39 00:41:57 43° 261° (W) 00:46:17 437.505/2401.250
AUBIESAT-1 28 Sep 00:40:20 00:44:29 79° 72° (ENE) 00:48:20 437.475
CUBEBUG 1 28 Sep 00:41:39 00:46:02 62° 259° (W) 00:50:25 437.445
RS-15 28 Sep 00:41:43 00:48:43 17° 344° (NNW) 00:55:50 29.354- 29.394
JAS-2 28 Sep 00:50:18 00:57:53 50° 98° (E) 01:05:00 435.910
QB50P2 28 Sep 00:52:08 00:56:21 67° 101° (E) 01:00:33 145.880/145.840
POLYITAN 1 28 Sep 00:54:21 00:58:33 67° 101° (E) 01:02:45 437.675
ANTELSAT 28 Sep 00:56:28 00:59:02 15° 293° (WNW) 01:01:37 437.575/2403.000
BEESAT 3 28 Sep 01:05:41 01:09:17 38° 114° (ESE) 01:12:56 437.485
TISAT 1 28 Sep 01:09:16 01:12:13 19° 69° (ENE) 01:15:09 437.305
M-CUBED/EXP-1 PRIME 28 Sep 01:18:12 01:21:51 28° 257° (WSW) 01:25:18 437.505
JUGNU 28 Sep 01:19:41 01:21:03 11° 194° (SSW) 01:22:25 437.505
50 SAT 28 Sep 01:19:44 01:22:39 23° 264° (W) 01:25:37 437.505
SPROUT 28 Sep 01:23:04 01:27:12 49° 260° (W) 01:31:22 437.525
AISAT 28 Sep 01:31:04 01:34:28 21° 265° (W) 01:37:53 437.250
DUCHIFAT 1 28 Sep 01:32:35 01:36:37 47° 286° (WNW) 01:40:38 145.980
SO-50 28 Sep 01:34:02 01:38:30 58° 244° (WSW) 01:42:50 436.795
QB50P1 28 Sep 01:34:45 01:38:40 38° 287° (WNW) 01:42:35 145.935-145.965
BUGSAT 1 28 Sep 01:35:06 01:39:06 67° 101° (E) 01:43:07 437.445
UKube-1 28 Sep 01:37:13 01:41:14 38° 261° (W) 01:45:18 .
Oscar 19 28 Sep 01:37:42 01:39:56 13° 92° (E) 01:42:10 437.125/150
POPSAT HIP 1 28 Sep 01:48:33 01:52:08 28° 289° (WNW) 01:55:43 437.405
BEESAT 28 Sep 01:53:12 01:55:02 12° 63° (ENE) 01:56:51 436.000
BEESAT 2 28 Sep 02:00:45 02:04:40 84° 118° (ESE) 02:08:39 435.950
NANOSAT C BR1 28 Sep 02:05:25 02:08:23 19° 291° (WNW) 02:11:22 145.865
DX 1 28 Sep 02:07:50 02:10:07 14° 267° (W) 02:12:23 434.975-435.025
SRMSAT 28 Sep 02:14:02 02:17:26 16° 186° (S) 02:20:49 437.500
Cosmos 2491 28 Sep 02:26:34 02:35:08 51° 78° (ENE) 02:43:36 435.465 / 435.565
ISS 28 Sep 02:27:19 02:28:40 12° 24° (NNE) 02:30:01 145.825
Gurwin Techsat 1B 28 Sep 02:33:44 02:37:54 23° 95° (E) 02:42:03 435.225
JAS-2 28 Sep 02:35:44 02:42:28 33° 295° (WNW) 02:48:57 435.910
TISAT 1 28 Sep 02:43:56 02:47:37 30° 262° (W) 02:51:19 437.305
BEESAT 3 28 Sep 02:44:35 02:47:05 16° 310° (NW) 02:49:36 437.485
RS-15 28 Sep 03:00:30 03:08:32 19° 22° (NNE) 03:16:31 29.354- 29.394
ITUPSAT 1 28 Sep 03:01:26 03:06:08 65° 74° (ENE) 03:10:53 437.325
SWISSCUBE 28 Sep 03:14:28 03:19:12 80° 256° (WSW) 03:24:00 437.505
Oscar 19 28 Sep 03:14:32 03:19:38 63° 286° (WNW) 03:24:41 437.125/150
MOZHAYETS 4 28 Sep 03:18:31 03:21:03 15° 66° (ENE) 03:23:36
YUBILEINY 28 Sep 03:22:00 03:30:28 55° 90° (E) 03:38:54 435.215
BEESAT 28 Sep 03:27:31 03:32:13 64° 258° (WSW) 03:36:57 436.000
KKS-1 28 Sep 03:43:04 03:45:59 18° 67° (ENE) 03:48:56 437.445
PCSat 28 Sep 04:01:31 04:05:35 22° 106° (ESE) 04:09:38 145.827
ISS 28 Sep 04:02:20 04:05:37 77° 41° (NE) 04:08:54 145.825
